Flag for Australia Weather past 2 weeks in Brisbane, Queensland, Australia

Now
68 °F

Clear.


Feels Like: 68 °F
Forecast: 49 / 65 °F
Wind: 16 mph from North

Location: Brisbane Airport M. O

Current Time: Aug 1, 2014 at 6:13:53 PM

Latest Report: Aug 1, 2014 at 6:00 PM


Visibility: 10 mi

Pressure: 29.86 "Hg

Humidity: 73%

Dew point: 59 °F

Location of BrisbaneLocation

Historic Weather in Brisbane — Graph

°F

Brisbane temperature yesterday

Maximum temperature yesterday: 72 °F (at 11:30 AM)
Minimum temperature yesterday: 45 °F (at 6:00 AM)
Average temperature yesterday: 61 °F

Past Weeks' High & Low Weather Summary

 TemperatureHumidityPressure
High82 °F (Aug 1, 2:30 PM)100% (Jul 23, 1:00 AM)30.33 "Hg (Jul 23, 1:00 AM)
Low41 °F (Jul 29, 6:00 AM)15% (Jul 18, 12:30 PM)29.83 "Hg (Aug 1, 3:30 PM)
Average59 °F68%30.13 "Hg
* Reported Jul 17 5:00 PM — Aug 1 5:00 PM, Brisbane, Weather by CustomWeather, © 2014

Note: Actual official high and low records may vary slightly from our data, if they occured in-between our weather recording intervals... More about our weather records

Advertising

Brisbane weather history for previous 24 hours

 ConditionsComfort  
Time TempWeatherWind HumidityBarometerVisibility
5:00 PM
Aug 1
79 °FClear.12 mph26%29.86 "Hg10 mi
4:00 PM81 °FSunny.10 mph26%29.86 "Hg10 mi
3:30 PM82 °FSunny.10 mph26%29.83 "Hg10 mi
3:00 PM82 °FSunny.16 mph26%29.86 "Hg10 mi
2:30 PM82 °FScattered clouds.18 mph26%29.86 "HgN/A
2:00 PM81 °FScattered clouds.17 mph30%29.86 "HgN/A
1:30 PM81 °FPassing clouds.12 mph32%29.89 "HgN/A
1:00 PM77 °FPassing clouds.15 mph44%29.89 "HgN/A
12:30 PM77 °FPassing clouds.13 mph47%29.92 "HgN/A
12:00 PM75 °FPassing clouds.12 mph54%29.92 "HgN/A
11:30 AM73 °FPassing clouds.10 mph53%29.95 "HgN/A
11:00 AM72 °FPassing clouds.10 mph57%29.98 "HgN/A
10:30 AM72 °FSunny.12 mph57%29.98 "Hg10 mi
10:00 AM68 °FSunny.13 mph69%29.98 "Hg10 mi
9:00 AM66 °FSunny.9 mph73%30.01 "Hg10 mi
8:00 AM63 °FSunny.6 mph83%30.01 "Hg10 mi
7:00 AM57 °FSunny.6 mph94%30.01 "Hg10 mi
6:30 AM55 °FFog.6 mph94%30.01 "HgN/A
6:00 AM55 °FFog.5 mph94%30.01 "HgN/A
5:30 AM55 °FFog.6 mph94%30.01 "HgN/A
5:00 AM55 °FFog.3 mph94%29.98 "HgN/A
4:30 AM57 °FClear.6 mph94%29.98 "Hg10 mi
4:00 AM59 °FClear.9 mph88%29.98 "Hg10 mi
3:30 AM59 °FClear.9 mph88%29.98 "Hg10 mi
3:00 AM59 °FClear.12 mph88%29.98 "Hg10 mi
2:30 AM59 °FClear.12 mph88%29.98 "Hg10 mi
2:00 AM61 °FClear.12 mph88%30.01 "Hg10 mi
1:30 AM59 °FClear.13 mph88%30.01 "Hg10 mi
1:00 AM61 °FClear.13 mph88%30.01 "Hg10 mi
12:00 AM61 °FClear.8 mph83%30.04 "Hg10 mi
11:30 PM
Jul 31
61 °FClear.9 mph83%30.04 "Hg10 mi
11:00 PM63 °FClear.9 mph83%30.04 "Hg10 mi
10:30 PM63 °FClear.14 mph83%30.04 "Hg10 mi
10:00 PM63 °FClear.14 mph83%30.04 "Hg10 mi
9:30 PM63 °FClear.12 mph83%30.04 "Hg10 mi
9:00 PM64 °FClear.13 mph78%30.04 "Hg10 mi
8:30 PM64 °FClear.13 mph78%30.04 "Hg10 mi
8:00 PM64 °FClear.14 mph83%30.04 "Hg10 mi
7:30 PM64 °FClear.13 mph83%30.01 "Hg10 mi
7:00 PM64 °FClear.15 mph83%30.01 "Hg10 mi
6:30 PM64 °FClear.14 mph83%30.01 "Hg10 mi
6:00 PM64 °FClear.15 mph83%30.01 "Hg10 mi
Weather by CustomWeather, © 2014

See weather overviewHow to use our weather pages